Tracking 30922 objects as of 2-Jul-2025
HD Live streaming from Space Station
objects crossing your sky now

STARLINK-30366

Track STARLINK-30366 now!
10-day predictions
STARLINK-30366 is classified as:


NORAD ID: 57749
Int'l Code: 2023-131T
Perigee: 565.7 km
Apogee: 566.7 km
Inclination: 43.0 °
Period: 95.8 minutes
Semi major axis: 6937 km
RCS: Unknown
Launch date: September 1, 2023
Source: United States (US)
Launch site: AIR FORCE EASTERN TEST RANGE (AFETR)
Your satellite tracking list
SATCOM 4
Track 1 satellite(s)




NASA's NSSDC Master Catalog

Two Line Element Set (TLE):
1 57749U 23131T   25182.16642502 -.00000022  00000-0  13461-4 0  9990
2 57749  43.0028  98.0558 0000735 261.8657  98.2102 15.02536348102097
Source of the keplerian elements: AFSPC